Location: Bush Observatory
(40.2653°N, 94.3194°W)
Time: 06:39:44
(UTC-05:00)

Iridium 13 - Visible Passes

Search period start: 21 April 2015 00:00
Search period end: 01 May 2015 00:00
Orbit: 776 x 779 km, 86.4° (Epoch: 20 April)

Date Brightness Start Highest point End Pass type
(mag) Time Alt. Az. Time Alt. Az. Time Alt. Az.
21 Apr 6.1 20:34:04 10° N 20:39:14 63° W 20:44:22 10° S visible
22 Apr 8.6 21:43:31 10° NW 21:45:53 13° WNW 21:47:58 10° WSW visible
23 Apr 8.0 21:08:28 10° NNW 21:12:37 24° W 21:16:37 10° SW visible
24 Apr 6.9 20:34:19 10° NNW 20:39:15 43° W 20:44:08 10° SSW visible
26 Apr 8.5 21:09:15 10° NW 21:12:33 16° W 21:15:36 10° WSW visible
27 Apr 7.8 20:34:42 10° NNW 20:39:14 30° W 20:43:40 10° SW visible
29 Apr 8.9 21:10:49 10° WNW 21:12:27 11° WNW 21:13:42 10° W visible
30 Apr 8.4 20:35:16 10° NNW 20:39:11 21° W 20:42:55 10° SW visible
